Weather History for Klawock, AK

Change the Weather History Date:

Saturday, October 18, 2014

  Actual Average Record
Temperature  
Mean Temperature 48 °F -  
Max Temperature 52 °F 49 °F 55 °F (2002)
Min Temperature 45 °F 40 °F 32 °F (2004)
Degree Days  
Heating Degree Days 17    
Moisture  
Dew Point 47 °F    
Average Humidity 93    
Maximum Humidity 100    
Minimum Humidity 83    
Precipitation  
Precipitation 0.90 in - - ()
Sea Level Pressure  
Sea Level Pressure 29.30 in    
Wind  
Wind Speed 8 mph (SSE)    
Max Wind Speed 18 mph    
Max Gust Speed 28 mph    
Visibility 6 miles    
Events Rain    
Averages and records for this station are not official NWS values.
T = Trace of Precipitation, MM = Missing Value Source: NWS Daily Summary

Daily Weather History Graph

Daily Weather History Graph

Search for Another Location

Airport:

Trip Planner

Search our weather history database for the weather conditions in past years. The results will help you decide how hot, cold, wet, or windy it might be!

Date:

Astronomy

Oct. 18, 2014 Rise Set
Actual Time 7:29 AM AKDT 5:44 PM AKDT
Civil Twilight 6:51 AM AKDT 6:21 PM AKDT
Nautical Twilight 6:09 AM AKDT 7:04 PM AKDT
Astronomical Twilight 5:26 AM AKDT 7:47 PM AKDT
Moon 1:46 AM AKDT (10/18) 3:51 PM AKDT (10/18)
Length of Visible Light 11h 30m
Length of Day
10h 15m
Waning Crescent, 23% of the Moon is Illuminated
Oct 18
Waning Crescent
Oct 23
New
Oct 30
First Quarter
Nov 6
Full
Nov 14
Last Quarter

Hourly Weather History & Observations

Time (AKDT) Temp. Dew Point Humidity Pressure Visibility Wind Dir Wind Speed Gust Speed Precip Events Conditions
12:53 AM 48.9 °F 48.0 °F 97% 29.28 in 10.0 mi SSW 16.1 mph 23.0 mph 0.02 in Rain Light Rain
2:01 AM 48.0 °F 48.0 °F 100% 29.32 in 2.5 mi South 8.1 mph - 0.01 in Rain Light Rain
2:08 AM 48.0 °F 48.0 °F 100% 29.33 in 6.0 mi SSW 10.4 mph - 0.01 in Rain Light Rain
2:24 AM 48.0 °F 48.0 °F 100% 29.34 in 3.0 mi SSW 9.2 mph - 0.05 in Rain Rain
2:37 AM 48.0 °F 48.0 °F 100% 29.34 in 10.0 mi SSW 8.1 mph - 0.05 in Rain Light Rain
2:53 AM 48.0 °F 46.9 °F 96% 29.36 in 7.0 mi South 8.1 mph - 0.05 in Rain Light Rain
3:00 AM 48.0 °F 48.0 °F 100% 29.36 in 7.0 mi SSW 6.9 mph - 0.00 in Rain Light Rain
3:09 AM 48.0 °F 48.0 °F 100% 29.36 in 3.0 mi South 5.8 mph - 0.01 in Rain Light Rain
3:34 AM 48.0 °F 46.9 °F 96% 29.37 in 5.0 mi SSW 9.2 mph - 0.02 in Rain Light Rain
3:44 AM 48.0 °F 46.9 °F 96% 29.38 in 10.0 mi South 8.1 mph - 0.02 in   Overcast
3:53 AM 46.9 °F 46.0 °F 97% 29.39 in 10.0 mi SSE 6.9 mph - 0.02 in   Overcast
4:53 AM 46.9 °F 45.0 °F 93% 29.39 in 10.0 mi Calm Calm - N/A   Scattered Clouds
5:53 AM 46.9 °F 43.0 °F 86% 29.40 in 10.0 mi SE 8.1 mph - N/A   Mostly Cloudy
7:53 AM 45.0 °F 43.0 °F 93% 29.37 in 10.0 mi Calm Calm - N/A   Clear
8:53 AM 46.0 °F 44.1 °F 93% 29.36 in 9.0 mi Calm Calm - 0.00 in Rain Light Rain
10:53 AM 48.0 °F 46.0 °F 93% 29.28 in 5.0 mi Variable 5.8 mph 18.4 mph 0.02 in Rain Light Rain
11:53 AM 50.0 °F 46.0 °F 86% 29.24 in 5.0 mi NE 12.7 mph 19.6 mph 0.07 in Rain Rain
12:31 PM 48.9 °F 46.9 °F 93% 29.23 in 2.0 mi NNE 4.6 mph - 0.09 in Rain Heavy Rain
12:41 PM 48.9 °F 48.0 °F 97% 29.23 in 1.8 mi Variable 3.5 mph - 0.12 in Rain Heavy Rain
12:53 PM 50.0 °F 46.9 °F 89% 29.25 in 1.8 mi Variable 5.8 mph - 0.17 in Rain Heavy Rain
1:14 PM 48.9 °F 46.9 °F 93% 29.24 in 2.5 mi East 10.4 mph - 0.07 in Rain Rain
1:41 PM 50.0 °F 45.0 °F 83% 29.22 in 3.0 mi SE 18.4 mph 27.6 mph 0.14 in Rain Rain
1:53 PM 48.9 °F 45.0 °F 86% 29.23 in 2.0 mi ESE 13.8 mph 21.9 mph 0.19 in Rain Heavy Rain
3:53 PM 51.1 °F 46.9 °F 86% 29.26 in 10.0 mi South 5.8 mph - N/A   Mostly Cloudy
4:53 PM 51.1 °F 46.9 °F 86% 29.26 in 6.0 mi Variable 5.8 mph - 0.01 in Rain Light Rain
5:51 PM 50.0 °F 48.2 °F 94% 29.27 in 2.5 mi SE 4.6 mph - 0.06 in Rain Heavy Rain
5:53 PM 50.0 °F 48.0 °F 93% 29.27 in 2.5 mi Variable 5.8 mph - 0.06 in Rain Rain
6:01 PM 48.9 °F 48.0 °F 97% 29.27 in 7.0 mi Calm Calm - 0.00 in Rain Light Rain
6:53 PM 50.0 °F 46.9 °F 89% 29.28 in 7.0 mi SE 5.8 mph - 0.05 in Rain Light Rain
7:53 PM 51.1 °F 48.0 °F 89% 29.29 in 10.0 mi SE 8.1 mph - 0.00 in   Overcast
8:00 PM 51.1 °F 48.0 °F 89% 29.28 in 10.0 mi SSE 6.9 mph - N/A   Overcast
8:53 PM 51.1 °F 48.0 °F 89% 29.29 in 10.0 mi SSE 4.6 mph - 0.00 in   Overcast
9:53 PM 51.1 °F 48.0 °F 89% 29.30 in 6.0 mi ESE 6.9 mph - 0.02 in Rain Light Rain
10:18 PM 50.0 °F 48.0 °F 93% 29.30 in 1.8 mi ENE 5.8 mph - 0.19 in Rain Light Rain
10:20 PM 50.0 °F 48.9 °F 96% 29.30 in 3.0 mi ENE 4.6 mph - 0.19 in Rain Light Rain
10:53 PM 48.9 °F 48.9 °F 100% 29.29 in 6.0 mi Calm Calm - 0.22 in Rain Light Rain
11:53 PM 48.9 °F 48.9 °F 100% 29.30 in 10.0 mi Calm Calm - 0.00 in   Overcast